Location: La Comballaz
(46.3780°N, 7.0817°E)
Time: 13:06:20
(UTC+00:00)

Aureole 1 Rocket - Visible Passes

Search period start: 06 August 2020 00:00
Search period end: 16 August 2020 00:00
Orbit: 377 x 1380 km, 73.9° (Epoch: 06 August)

Date Brightness Start Highest point End Pass type
(mag) Time Alt. Az. Time Alt. Az. Time Alt. Az.
06 Aug 5.5 19:44:10 10° SE 19:49:02 22° E 19:54:38 10° NE visible
06 Aug 4.4 21:26:18 12° SSW 21:32:28 82° WNW 21:40:39 10° NNE visible
06 Aug 6.4 23:12:53 10° W 23:18:32 24° NW 23:24:56 10° N visible
07 Aug 5.3 19:39:58 10° SE 19:45:13 25° E 19:51:18 10° NE visible
07 Aug 4.5 21:22:10 10° SSW 21:28:50 75° WNW 21:37:05 10° NNE visible
07 Aug 6.6 23:09:31 10° W 23:15:05 22° NW 23:21:18 10° N visible
08 Aug 5.2 19:35:51 10° SSE 19:41:25 28° E 19:47:55 10° NE visible
08 Aug 4.7 21:18:29 10° SSW 21:25:14 69° WNW 21:33:30 10° NNE visible
08 Aug 6.7 23:06:12 10° W 23:11:38 21° NW 23:17:40 10° N visible
09 Aug 5.1 19:31:47 10° SSE 19:37:38 32° E 19:44:30 10° NE visible
09 Aug 4.9 21:14:49 10° SW 21:21:38 63° WNW 21:29:55 10° NNE visible
09 Aug 6.8 23:02:54 10° W 23:08:12 20° NW 23:14:00 10° N visible
10 Aug 7.6 02:44:58 10° N 02:46:09 10° NNE 02:47:20 10° NNE visible
10 Aug 5.0 19:27:45 10° SSE 19:33:51 36° E 19:41:03 10° NE visible
10 Aug 5.1 21:11:10 10° SW 21:18:04 57° WNW 21:26:19 10° NNE visible
10 Aug 6.9 22:59:37 10° WNW 23:04:47 19° NW 23:10:20 10° N visible
11 Aug 7.6 02:40:52 10° N 02:42:49 11° NNE 02:44:45 10° NNE visible
11 Aug 4.9 19:23:46 10° SSE 19:30:06 40° E 19:37:35 10° NNE visible
11 Aug 5.3 21:07:34 10° SW 21:14:30 53° WNW 21:22:42 10° NNE visible
11 Aug 7.0 22:56:24 10° WNW 23:01:22 18° NW 23:06:40 10° N visible
12 Aug 7.6 02:36:58 10° N 02:39:28 11° NNE 02:41:56 10° NE visible
12 Aug 4.8 19:19:48 10° SSE 19:26:21 45° E 19:34:06 10° NNE visible
12 Aug 5.5 21:03:57 10° SW 21:10:56 49° WNW 21:19:06 10° NNE visible
12 Aug 7.1 22:53:12 10° WNW 22:57:58 17° NNW 23:02:59 10° N visible
13 Aug 7.5 02:33:09 10° N 02:36:07 12° NNE 02:39:01 10° NE visible
13 Aug 4.7 19:15:52 10° S 19:22:37 50° E 19:30:35 10° NNE visible
13 Aug 5.7 21:00:24 10° SW 21:07:24 45° NW 21:15:28 10° NNE visible
13 Aug 7.2 22:50:02 10° WNW 22:54:33 16° NNW 22:59:17 10° N visible
14 Aug 7.5 02:29:23 10° N 02:32:44 13° NNE 02:36:01 10° NE visible
14 Aug 4.6 19:11:59 10° S 19:18:54 56° ESE 19:27:03 10° NNE visible
14 Aug 5.8 20:56:52 10° WSW 21:03:52 41° NW 21:11:50 10° NNE visible
14 Aug 7.3 22:46:54 10° WNW 22:51:10 15° NNW 22:55:34 10° N visible
15 Aug 7.5 02:25:38 10° N 02:29:22 13° NNE 02:32:58 10° NE visible
15 Aug 4.6 19:08:07 10° S 19:15:12 62° ESE 19:23:31 10° NNE visible
15 Aug 6.0 20:53:22 10° WSW 21:00:21 38° NW 21:08:12 10° NNE visible
15 Aug 7.3 22:43:50 10° WNW 22:47:46 14° NNW 22:51:49 10° N visible
